Lær å fly hos oss!

Oslo Flyveklubb har i mange år utdannet flygere til privatflygersetifikat PPL(A). Skolen har godkjenning for å drive utdanning til teoriundervisning til PPL(A), privatflygersertifikat PPL (A) og mørkeflyging.

Gi bort en flytur i gave

På en introduksjonstur vil kandidaten være med på forberedelser til, og gjennomføring av en flytur på en times varighet med en av våre instruktører.

Hvor vi holder til?

Flyplassen ligger i Lillestrøm 10 minutter med tog fra Oslo. Følg storgata fra Lillestrøms sentrum så vill man se plassen på venstre side.
5 days ago
Timeline Photos

Departure Århus

LIKE
LOVE
HAHA
WOW
SAD
ANGRY
Metar/TAF Gardermoen:

ENGM 241050Z 23009KT 200V280 CAVOK 18/04 Q0995 NOSIG

TAF ENGM 240500Z 2406/2506 26007KT 9999 FEW010 SCT060 TEMPO 2411/2418 SHRA SCT030CB BKN050 PROB30 2412/2418 4000 TSRA